Hourly Data Report for October 18, 2021

DRYDEN REGIONAL
ONTARIO
Current Station Operator: NAVCAN

49°49'39.000" N
92°44'39.000" W
412.70 m
6032125
71527
YHD

Download Data

Hourly Data (October 2021)
Hourly Data Report for October 18, 2021
TIME
LST
Temp Definition
°C
Dew Point Definition
°C
Rel Hum Definition
%
Precip. Amount Definition
mm

Wind Dir Definition
10's deg

Wind Spd Definition
km/h
Visibility Definition
km
Stn Press Definition
kPa
Hmdx Definition


Wind Chill Definition


Weather Definition


00:00 7.5 4.3 80 0.0 17 15 16.1 96.60     LegendNANA
01:00 7.4 4.0 79 0.0 17 15 16.1 96.59     LegendNANA
02:00 7.3 4.1 80 0.0 17 15 16.1 96.57     LegendNANA
03:00 6.6 3.9 83 0.0 18 11 16.1 96.55     LegendNANA
04:00 7.0 3.8 80 0.0 17 13 16.1 96.55     LegendNANA
05:00 7.0 3.8 80 0.0 17 18 16.1 96.52     LegendNANA
06:00 6.8 4.0 82 0.0 17 17 16.1 96.48     LegendNANA
07:00 7.2 4.0 80 0.0 17 17 16.1 96.46     LegendNANA
08:00 9.0 4.6 74 0.0 17 17 16.1 96.46     LegendNANA
09:00 11.4 4.9 64 0.0 18 21 16.1 96.41     LegendNANA
10:00 14.4 5.7 55 0.0 18 18 16.1 96.40     LegendNANA
11:00 16.7 5.4 47 0.0 17 22 16.1 96.36     LegendNANA
12:00 18.6 5.9 43 0.0 18 21 16.1 96.30     LegendNANA
13:00 19.5 5.1 38 0.0 19 26 16.1 96.24     LegendNANA
14:00 20.2 5.1 37 0.0 19 22 16.1 96.18     LegendNANA
15:00 20.6 5.6 37 0.0 19 22 16.1 96.10     LegendNANA
16:00 19.6 6.4 42 0.0 18 15 16.1 96.07     LegendNANA
17:00 18.0 6.3 46 0.0 17 11 16.1 96.04     LegendNANA
18:00 16.6 6.1 49 0.0 17 15 16.1 96.03     LegendNANA
19:00 16.0 6.0 51 0.0 17 18 16.1 96.02     LegendNANA
20:00 14.8 6.2 56 0.0 17 18 16.1 96.02     LegendNANA
21:00 13.3 6.3 62 0.0 18 13 16.1 96.02     LegendNANA
22:00 14.0 6.2 59 0.0 19 18 16.1 96.02     LegendNANA
23:00 14.6 6.2 57 0.0 20 18 16.1 96.01     LegendNANA

Notes on Data Quality.

Legend

  • E = Estimated
  • M = Missing
  • NA = Not Available*
  • [empty] = Indicates an unobserved value
Date modified: